Regional Weather Roundup
Issued by NWS

Home | Current Version | Previous Version | Text Only | Print | Product List | Glossary On
Versions: 1 2 3 4 5 6 7 8 9 10 11 12 13 14 15 16 17 18 19 20 21 22 23 24 25 26 27 28 29 30 31 32 33 34 35 36 37 38 39 40 41 42 43 44 45 46 47 48 49 50
000
ASUS43 KTOP 160859
RWRKS

WEATHER ROUNDUP FOR KANSAS
NATIONAL WEATHER SERVICE GOODLAND KS
300 AM CST MON JAN 16 2017

NOTE:  "FAIR" INDICATES FEW OR NO CLOUDS BELOW 12,000 FEET WITH NO
SIGNIFICANT WEATHER AND/OR OBSTRUCTIONS TO VISIBILITY.

KSZ001>006-013>018-027>032-041>047-161000-
NORTHWEST KANSAS

CITY           SKY/WX    TMP DP  RH WIND       PRES   REMARKS
GOODLAND       FRZ RAIN  30  29  96 N13       29.91S WCI  20
HAYS           MIX PCPN  32  31  96 NE12      29.90F WCI  23
HILL CITY      FRZ RAIN  32  31  96 NE9       29.95F FOG
RUSSELL        FRZ RAIN  31  31 100 NE16      29.89F WCI  20
$$

KSZ061>065-074>080-084>089-161000-
SOUTHWEST KANSAS

CITY           SKY/WX    TMP DP  RH WIND       PRES   REMARKS
DODGE CITY     MIX PCPN  31  31 100 N21       29.81F FOG     WCI  18
ELKHART          N/A     29  23  78 N7          N/A
GARDEN CITY    FRZ RAIN  31  30  96 N14       29.85S WCI  21
LIBERAL        CLOUDY    34  28  80 CALM      29.85S
$$

KSZ066>073-081>083-090>101-161000-
SOUTHEAST KANSAS

CITY           SKY/WX    TMP DP  RH WIND       PRES   REMARKS
CHANUTE        RAIN      43  42  97 NE7       29.93F FOG
HUTCHINSON     HVY RAIN  33  32  96 NE9G23    29.87F FOG
MEDICINE LODGE   N/A     33  31  92 NE9       29.80F
NEWTON         LGT SNOW  34  34 100 E13G18    29.87F FOG     WCI  25
PARSONS        LGT RAIN  48  47  96 VRB7      29.91F
WICHITA INTL   RAIN      39  39 100 NE16      29.83F FOG     WCI  30
WICHITA JABRA  HVY RAIN  37  37 100 NE8       29.85F FOG
WICHITA MCCONL HVY RAIN  39  37  93 NE12      29.84F FOG     WCI  32
WINFIELD       RAIN      45  45 100 E16       29.81F
$$

KSZ007>012-019>026-033>040-048>060-102>105-161000-
NORTHEAST KANSAS

CITY           SKY/WX    TMP DP  RH WIND       PRES   REMARKS
CONCORDIA      MIX PCPN  32  32 100 NE10      29.97F FOG     WCI  24
EMPORIA        RAIN      35  35 100 E9        29.94F FOG
LAWRENCE       LGT RAIN  33  33 100 E9        30.01F FOG
MANHATTAN      LGT RAIN  33  32  96 NE12      29.97F FOG     WCI  24
OLATHE IND     RAIN      35  34  96 E10       30.00F FOG     WCI  27
OLATHE EXE     LGT RAIN  33  33 100 E9        30.00F FOG
SALINA           N/A    N/A N/A N/A MISG        N/A
TOPEKA BILLARD CLOUDY    34  31  88 NE8       30.00F FOG
TOPEKA FORBES  MIX PCPN  34  33  96 NE8       29.98F FOG
$$




USA.gov is the U.S. government's official web portal to all federal, state and local government web resources and services.